Regional Weather Roundup
Issued by NWS

Home | Current Version | Previous Version | Graphics & Text | Print | Product List | Glossary On
Versions: 1 2 3 4 5 6 7 8 9 10 11 12 13 14 15 16 17 18 19 20 21 22 23 24 25 26 27
000
ASUS45 KTFX 210610
RWRMT
MONTANA REGIONAL WEATHER ROUNDUP
NATIONAL WEATHER SERVICE GREAT FALLS MT
1200 AM MDT MON MAY 21 2018

NOTE: "FAIR" INDICATES FEW OR NO CLOUDS BELOW 12000 FEET WITH NO
SIGNIFICANT WEATHER AND/OR OBSTRUCTIONS TO VISIBILITY.

MTZ001>007-043-210700-
WEST OF THE DIVIDE

CITY           SKY/WX    TMP DP  RH WIND       PRES   REMARKS
KALISPELL      FAIR      59  47  64 S6        29.87S
MISSOULA       FAIR      56  48  74 NW5       29.90S
BUTTE          MOCLDY    49  44  83 VRB3      29.99R
MULLAN PASS    CLOUDY    48  41  76 S3        30.01F
ANACONDA         N/A     52  45  76 SE5       29.97R
DEER LODGE       N/A     46  46 100 W3        29.97S
HAMILTON         N/A     54  48  82 MISG      29.93S
PLAINS           N/A     58  53  83 CALM      29.91S
RONAN            N/A     54  48  82 CALM      29.91R
$$

MTZ008-052>055-210700-
SOUTHWEST MONTANA

CITY           SKY/WX    TMP DP  RH WIND       PRES   REMARKS
BOZEMAN        FAIR      56  47  71 SW12      29.94R
DILLON         FAIR      52  46  80 W3        29.96R
ENNIS          CLOUDY    52  46  82 S5        30.01F
W YELLOWSTONE  CLOUDY    46  45  93 CALM      30.07R
$$

MTZ009-010-012-014-046-048-049-054-210700-
EAST SLOPES AND CENTRAL MONTANA

CITY           SKY/WX    TMP DP  RH WIND       PRES   REMARKS
CUT BANK       FAIR      53  43  68 W9        29.88S
GREAT FALLS    FAIR      57  45  64 S5        29.89R
MALMSTROM AFB  FAIR      53  46  77 SW7       29.87S
HELENA         FAIR      56  47  71 CALM      29.89S
AUGUSTA        FAIR      51  41  68 NW3       29.91S
BOWMANS CRNR   FAIR      52  42  70 W9        29.89S
CHOTEAU          N/A     54  45  71 SW6       29.90S
POWER          FAIR      51  45  78 W5        29.87S
RAYNESFORD     FAIR      52  46  82 NE5       29.90S
ULM            FAIR      54  47  80 CALM      29.88S
WHITE SULPHUR    N/A     46  43  87 S5        29.95R
$$

MTZ011-013-016-021-045-047-050-051-210700-
NORTH CENTRAL MONTANA

CITY           SKY/WX    TMP DP  RH WIND       PRES   REMARKS
HAVRE          FAIR      65  50  58 S16       29.82F
LEWISTOWN      FAIR      49  46  90 SE8       29.91F
N BAR RANCH    FAIR      46  45  93 NW5       29.97S
CHINOOK          N/A     61  52  72 E5        29.85S
DENTON         FAIR      56  49  80 S8        29.86S
GEYSER         FAIR      53  48  84 SW9       29.89S
GRASS RANGE    FAIR      51  48  87 CALM      29.89S
ROY            FAIR      57  49  75 S16       29.88S
STANFORD       FAIR      52  47  81 CALM      29.91F
$$

MTZ017>020-022>027-061-062-210700-
NORTHEAST MONTANA

CITY           SKY/WX    TMP DP  RH WIND       PRES   REMARKS
GLASGOW        FAIR      55  41  59 E13       29.92S
GLENDIVE       FAIR      53  39  59 S10       30.01S
JORDAN           N/A     56  43  61 S13       29.91F
MALTA          CLEAR     57  46  67 E6        29.86F
SIDNEY         FAIR      49  38  65 S7        30.02S
WOLF POINT     FAIR      56  39  53 SE5       29.96S
PLENTYWOOD       N/A     52  30  43 CALM      30.00S
POPLAR           N/A     52  37  58 E8        29.97F
SCOBEY           N/A     55  33  43 SE10      29.95F
$$

MTZ028>42-056>058-210700-
SOUTHCENTRAL AND SOUTHEAST MONTANA

CITY           SKY/WX    TMP DP  RH WIND       PRES   REMARKS
BAKER          FAIR      46  40  79 SE16      30.03F
BILLINGS       FAIR      60  48  64 CALM      29.90S
LIVINGSTON     FAIR      52  48  86 S7        29.94R
MILES CITY     FAIR      54  41  61 SE15      29.96S
BIG TIMBER     CLEAR     54  50  87 N6        29.95F
EKALAKA          N/A     49  36  61 SE10      30.00F
FORSYTH          N/A     55  45  67 SE8       29.92F
HARLOWTON      FAIR      51  48  90 N6        29.95S
LAUREL           N/A     57  50  77 N9        29.90F
$$

REGIONAL REPORTS...DAKOTAS

CITY           SKY/WX    TMP DP  RH WIND       PRES   REMARKS
WILLISTON      FAIR      57  37  47 S9        30.03R
MINOT          FAIR      52  35  52 SE8       30.07S
DICKINSON      FAIR      41  34  76 SE9       30.06S
BEACH          FAIR      48  37  66 S12       30.06S
CROSBY         FAIR      52  32  46 S14       30.03R
TIOGA          FAIR      48  34  57 S13       30.06S
WATFORD CITY   FAIR      55  34  44 SE12G17   30.04S
BISMARCK       FAIR      49  40  71 E3        30.10S
GRAND FORKS    FAIR      48  38  68 S6        30.10F
FARGO          FAIR      51  42  71 E5        30.11F
BUFFALO SD       N/A     47  37  68 SE14      29.99
RAPID CITY     FAIR      44  39  82 S3        30.07F
$$

REGIONAL REPORTS...WYOMING/IDAHO/WASHINGTON

CITY           SKY/WX    TMP DP  RH WIND       PRES   REMARKS
GILLETTE       FAIR      50  37  61 S22G29    30.02F
SHERIDAN       FAIR      56  47  71 SE10G20   29.94R
BUFFALO WY     FAIR      51  45  79 S17       30.00S
CODY           FAIR      53  43  68 SE6       29.98S
YELLOWSTONE LA   N/A     42  38  85 VRB5      30.18R
IDAHO FALLS    FAIR      51  50  96 N5        29.97F
SALMON         CLOUDY    58  48  69 SW3       29.94R
BOISE          CLOUDY    58  54  86 SE6       29.89F
SPOKANE        MOCLDY    60  53  77 SW7       29.89S
$$

REGIONAL REPORTS...ALBERTA

CITY           SKY/WX    TMP DP  RH WIND       PRES   REMARKS
CALGARY        MOCLDY    59  39  47 NW7       29.83R
CARDSTON         N/A     54  41  62 SW8         N/A
EDMONTON       PTCLDY    61  39  44 W8        29.77R
FORT MCMURRAY  CLEAR     59  43  55 S6        29.72S
HIGH LEVEL     PTCLDY    63  48  59 N8        29.65R
LETHBRIDGE     CLEAR     48  39  71 SW9       29.82S
LLOYDMINSTER   CLEAR     55  43  62 E2        29.75F
MEDICINE HAT   CLEAR     55  46  71 S5        29.78S
ONEFOUR          N/A     57  46  67 SE7         N/A
PEACE RIVER    PTCLDY    57  43  58 W8        29.72R
PINCHER CREEK    N/A    N/A N/A N/A W14         N/A
WATERTON GATE    N/A     48  37  66 S5          N/A
$$

REGIONAL REPORTS...SASKATCHEWAN

CITY           SKY/WX    TMP DP  RH WIND       PRES   REMARKS
CORONACH         N/A     48  34  57 S9          N/A
CYPRESS HILLS    N/A     54  43  66 S7          N/A
ESTEVAN        CLEAR     50  30  46 SE9       30.03R
PRINCE ALBERT  CLEAR     54  32  43 E3        29.85F
REGINA         PTCLDY    55  28  35 S15       29.95F
ROCKGLEN         N/A     54  34  47 S15         N/A
SASKATOON      PTCLDY    64  36  34 S16G23    29.83S
SWIFT CURRENT  CLEAR     55  39  54 S18       29.86S
VAL MARIE        N/A     57  39  51 SE14G20     N/A
$$




USA.gov is the U.S. government's official web portal to all federal, state and local government web resources and services.